Location: Lincoln
(40.8000°N, 96.6670°W)
Time: 16:28:15
(UTC-05:00)

BlueWalker 3 - Pass Details

Date: 10 February 2023
Orbit: 497 x 514 km, 53.2° (Epoch: 28 March)

Event Time Altitude Azimuth Distance (km) Brightness Sun altitude
Rises 19:53:09 0° 306° (NW) 2,607 6.4 -22.8°
Reaches altitude 10° 19:55:21 10° 304° (NW) 1,723 5.4 -23.2°
Enters shadow 19:59:02 63° 239° (WSW) 570 2.3 -23.9°
